Location: Prague
(50.0830°N, 14.4670°E)
Time: 12:23:55
(UTC+01:00)

STARLINK-1707 - Pass Details

Date: 22 September 2020
Orbit: 378 x 380 km, 53.0° (Epoch: 25 October)

Event Time Altitude Azimuth Distance (km) Brightness Sun altitude
Exits shadow 03:57:07 19° 67° (ENE) 971 5.6 -26.5°
Drops below altitude 10° 03:58:10 10° 68° (ENE) 1,397 6.6 -26.4°
Enters shadow 04:53:30 -70° 260° (W) 12,364 10.5 -18.8°
